Terminal Aerodrome Forecast
Issued by NWS

Home | Current Version | Previous Version | Text Only | Print | Product List | Glossary On
Versions: 1 2 3 4 5 6 7 8 9 10 11 12 13 14 15 16 17 18 19 20 21 22 23 24 25 26 27 28 29 30 31 32 33 34 35 36 37 38 39 40 41 42 43 44 45 46 47
000
FTUS43 KGLD 261720
TAFMCK
TAF
KMCK 261720Z 2618/2718 08013G18KT 5SM -DZ BR OVC005
     FM262200 08012KT P6SM OVC012
     FM270300 06014KT P6SM BKN030
     FM270900 04008KT P6SM SCT020 BKN035=

USA.gov is the U.S. government's official web portal to all federal, state and local government web resources and services.